Flag for Austria Weather past 2 weeks in Schwechat, Lower Austria, Austria

Now
37 °F

Sunny.


Feels Like: 32 °F
Forecast: 34 / 44 °F
Wind: 7 mph from Northwest

Location: Vienna Schwechat-Flughafen Airport

Current Time: Mar 5, 2015 at 7:58:33 AM

Latest Report: Mar 5, 2015 at 7:20 AM


Visibility: 10 mi

Pressure: 30.36 "Hg

Humidity: 70%

Dew point: 28 °F

Location of SchwechatLocation

Historic Weather in Schwechat — Graph

°F

Schwechat temperature yesterday

Maximum temperature yesterday: 46 °F (at 1:20 PM)
Minimum temperature yesterday: 28 °F (at 2:20 AM)
Average temperature yesterday: 40 °F

Past Weeks' High & Low Weather Summary

 TemperatureHumidityPressure
High57 °F (Mar 2, 11:50 AM)100% (Feb 20, 12:20 AM)30.74 "Hg (Feb 20, 12:20 AM)
Low23 °F (Feb 20, 5:20 AM)32% (Feb 21, 2:20 PM)29.56 "Hg (Feb 21, 5:20 PM)
Average40 °F77%30.01 "Hg
* Reported Feb 18 6:20 AM — Mar 5 6:50 AM, Schwechat, Weather by CustomWeather, © 2015

Note: Actual official high and low records may vary slightly from our data, if they occured in-between our weather recording intervals... More about our weather records

Advertising

Schwechat weather history for previous 24 hours

 ConditionsComfort  
Time TempWeatherWind HumidityBarometerVisibility
6:50 AM
Thu, Mar 5
36 °FSunny.8 mph70%30.36 "Hg10 mi
6:20 AM36 °FClear.8 mph70%30.36 "Hg10 mi
5:50 AM36 °FClear.8 mph70%30.36 "Hg10 mi
5:20 AM36 °FClear.8 mph70%30.33 "Hg10 mi
4:20 AM36 °FClear.6 mph70%30.33 "Hg10 mi
3:50 AM36 °FClear.7 mph70%30.33 "Hg10 mi
2:50 AM37 °FClear.9 mph65%30.33 "Hg10 mi
2:20 AM36 °FClear.7 mph70%30.33 "Hg10 mi
1:50 AM37 °FClear.8 mph70%30.33 "Hg10 mi
1:20 AM37 °FClear.9 mph70%30.33 "Hg10 mi
12:50 AM37 °FClear.10 mph70%30.33 "Hg10 mi
12:20 AM37 °FClear.9 mph70%30.33 "Hg10 mi
11:50 PM
Wed, Mar 4
37 °FClear.9 mph70%30.33 "Hg10 mi
11:20 PM37 °FClear.8 mph75%30.33 "Hg10 mi
10:20 PM39 °FClear.9 mph70%30.30 "Hg10 mi
9:50 PM39 °FClear.9 mph70%30.30 "Hg10 mi
9:20 PM39 °FClear.10 mph70%30.30 "Hg10 mi
8:50 PM39 °FClear.9 mph70%30.27 "Hg10 mi
8:20 PM41 °FClear.13 mph66%30.30 "Hg10 mi
7:50 PM41 °FClear.12 mph66%30.27 "Hg10 mi
7:20 PM43 °FClear.12 mph61%30.27 "Hg10 mi
6:50 PM43 °FPassing clouds.13 mph61%30.27 "HgN/A
6:20 PM43 °FPassing clouds.12 mph61%30.24 "HgN/A
5:50 PM45 °FPassing clouds.8 mph57%30.24 "HgN/A
5:20 PM46 °FPartly sunny.12 mph53%30.24 "HgN/A
4:50 PM46 °FPartly sunny.12 mph50%30.21 "HgN/A
4:20 PM46 °FBroken clouds.13 mph50%30.21 "HgN/A
3:50 PM46 °FBroken clouds.12 mph53%30.21 "HgN/A
3:20 PM46 °FBroken clouds.10 mph62%30.21 "HgN/A
2:50 PM45 °FBroken clouds.14 mph66%30.21 "HgN/A
2:20 PM45 °FBroken clouds.12 mph76%30.21 "HgN/A
1:50 PM43 °FSprinkles. Broken clouds.9 mph81%30.24 "HgN/A
1:20 PM46 °FScattered showers. Scattered clouds.12 mph62%30.24 "HgN/A
12:50 PM45 °FPartly sunny.14 mph66%30.21 "HgN/A
12:20 PM45 °FPartly sunny.21 mph61%30.21 "HgN/A
11:50 AM45 °FPartly sunny.23 mph61%30.21 "HgN/A
11:20 AM45 °FPartly sunny.18 mph61%30.21 "HgN/A
10:50 AM45 °FPartly sunny.21 mph61%30.21 "HgN/A
10:20 AM45 °FPartly sunny.24 mph61%30.18 "HgN/A
9:50 AM43 °FPartly sunny.22 mph66%30.18 "HgN/A
9:20 AM43 °FPartly sunny.17 mph71%30.18 "HgN/A
8:50 AM43 °FBroken clouds.21 mph71%30.18 "HgN/A
8:20 AM43 °FBroken clouds.23 mph71%30.15 "HgN/A
7:50 AM43 °FBroken clouds.13 mph61%30.15 "HgN/A
7:20 AM43 °FBroken clouds.15 mph53%30.15 "HgN/A
Weather by CustomWeather, © 2015

See weather overviewHow to use our weather pages